SPAINSAT

Last updated on Thu Nov 21 2024 00:02:40 GMT+0000 (Coordinated Universal Time)

1 28945U 06007A 24324.91796904 -.00000214 00000+0 00000+0 0 9997 2 28945 0.0291 253.2121 0005927 338.8301 127.9214 1.00271126 68467
UTC large
Height (km)
Speed (km/s)
/
Latitude / Longitude
Inclination (degrees)
Orbital Period (minutes)
Azimuth
Elevation
Range (km)
Doppler Factor

Next 0 passes for location: London (51.5072 / 0.1276)

Sorry there are no passes over London.